Home > Weather > Yarmouth County > Past weeks

Flag for Canada Weather for the Past 2 Weeks in Yarmouth County, Nova Scotia, Canada

Now
46 °F

Light rain. Fog.


Feels Like: 39 °F
Forecast: N/A
Wind: 18 mph from East

Location: Yarmouth

Current Time: May 2, 2016 at 8:38:19 PM

Latest Report: May 2, 2016 at 8:00 PM


Visibility: 5 mi

Pressure: 29.89 "Hg

Humidity: 93%

Dew Point: 45 °F

Location of Yarmouth CountyLocation

Historic Weather in Yarmouth County — Graph

°F

Yarmouth County Temperature Yesterday

Maximum temperature yesterday: 54 °F (at 2:00 PM)
Minimum temperature yesterday: 34 °F (at 2:00 AM)
Average temperature yesterday: 43 °F

High & Low Weather Summary for the Past Weeks

 TemperatureHumidityPressure
High66 °F (Apr 22, 3:00 PM)100% (Apr 18, 12:00 AM)30.29 "Hg (Apr 18, 12:00 AM)
Low28 °F (Apr 29, 4:00 AM)25% (Apr 24, 6:00 PM)29.70 "Hg (Apr 23, 5:00 PM)
Average43 °F71%30.00 "Hg
* Reported Apr 17 6:00 PM — May 2 6:00 PM, Yarmouth County, Weather by CustomWeather, © 2016

Note: Actual official high and low records may vary slightly from our data, if they occured in-between our weather recording intervals... More about our weather records

Advertising

Yarmouth County Weather History for the Previous 24 Hours

Scroll right to see more
 ConditionsComfort  
Time TempWeatherWind HumidityBarometerVisibility
6:00 PM
Mon, May 2
48 °FSprinkles. Fog.13 mph87%29.99 "Hg6 mi
5:00 PM50 °FSprinkles. More clouds than sun.14 mph82%30.01 "Hg8 mi
4:00 PM54 °FOvercast.15 mph67%30.03 "Hg15 mi
3:00 PM55 °FOvercast.18 mph63%30.05 "Hg15 mi
2:00 PM54 °FOvercast.17 mph58%30.09 "Hg15 mi
1:00 PM52 °FOvercast.18 mph58%30.12 "Hg15 mi
12:00 PM54 °FOvercast.18 mph47%30.14 "Hg15 mi
11:00 AM50 °FOvercast.16 mph54%30.14 "Hg15 mi
10:00 AM50 °FOvercast.12 mph54%30.16 "Hg15 mi
9:00 AM46 °FOvercast.12 mph66%30.17 "Hg15 mi
8:00 AM45 °FPartly sunny.6 mph71%30.20 "Hg15 mi
7:00 AM43 °FPartly cloudy.6 mph81%30.19 "Hg15 mi
6:00 AM43 °FOvercast.3 mph76%30.19 "Hg15 mi
5:00 AM43 °FOvercast.6 mph81%30.18 "Hg15 mi
4:00 AM43 °FOvercast.6 mph87%30.20 "Hg15 mi
3:00 AM43 °FOvercast.6 mph87%30.20 "Hg15 mi
2:00 AM43 °FOvercast.2 mph87%30.23 "Hg15 mi
1:00 AM43 °FOvercast.2 mph81%30.23 "Hg15 mi
12:00 AM43 °FOvercast.3 mph93%30.22 "Hg15 mi
11:00 PM
Sun, May 1
43 °FPassing clouds.3 mph87%30.25 "Hg15 mi
10:00 PM45 °FOvercast.6 mph87%30.26 "Hg15 mi
9:00 PM45 °FOvercast.3 mph81%30.25 "Hg15 mi
8:00 PM45 °FMore clouds than sun.6 mph81%30.26 "Hg15 mi
Weather by CustomWeather, © 2016

See weather overviewHow to use our weather pages